• MPC Preparation (Info)

  • MPEC 2013-V75 : 2013 VJ13

    The following Minor Planet Electronic Circular may be linked-to from your own Web pages, but must not otherwise be redistributed electronically.

    A form allowing access to any MPEC is at the bottom of this page.


    Read MPEC 2013-V74 Read MPEC 2013-V76


    M.P.E.C. 2013-V75                                Issued 2013 Nov. 12, 12:23 UT
    
         The Minor Planet Electronic Circulars contain information on unusual
             minor planets and routine data on comets.  They are published
       on behalf of Commission 20 of the International Astronomical Union by the
              Minor Planet Center, Smithsonian Astrophysical Observatory,
                              Cambridge, MA 02138, U.S.A.
    
                 Prepared using the Tamkin Foundation Computer Network
    
                                  MPC@CFA.HARVARD.EDU
                URL https://www.minorplanetcenter.net/    ISSN 1523-6714
    
                                       2013 VJ13
    
    Observations:
         K13V13J* C2013 11 10.13475 02 08 02.00 +30 47 55.8          19.8 VqEV075G96
         K13V13J  C2013 11 10.14165 02 08 02.47 +30 48 07.1          20.5 VqEV075G96
         K13V13J  C2013 11 10.14855 02 08 02.91 +30 48 18.6          19.6 VqEV075G96
         K13V13J  C2013 11 10.15544 02 08 03.34 +30 48 29.8          19.8 VqEV075G96
         K13V13J  C2013 11 10.19207 02 08 05.64 +30 49 29.2          20.4 VqEV075G96
         K13V13J  C2013 11 10.19580 02 08 05.87 +30 49 35.0          19.8 VqEV075G96
         K13V13J  C2013 11 10.19762 02 08 05.96 +30 49 37.9          20.4 VqEV075G96
         K13V13J  C2013 11 10.19944 02 08 06.08 +30 49 41.0          20.1 VqEV075G96
         K13V13J KC2013 11 10.25996102 08 08.96 +30 51 15.3          20.4 VqEV075V37
         K13V13J KC2013 11 10.26549202 08 09.27 +30 51 23.3          20.3 VqEV075V37
         K13V13J KC2013 11 10.26963902 08 09.51 +30 51 29.3          20.1 VqEV075V37
         K13V13J  C2013 11 10.27912 02 08 10.67 +30 51 42.7          19.8 RoEV075926
         K13V13J  C2013 11 10.29433 02 08 11.54 +30 52 04.5          20.1 RoEV075926
         K13V13J  C2013 11 10.30829 02 08 12.35 +30 52 24.3          19.7 RoEV075926
         K13V13J  C2013 11 10.30905 02 08 12.40 +30 52 23.8          19.7 VqEV075G96
         K13V13J  C2013 11 10.32444 02 08 13.29 +30 52 45.0          19.8 VqEV075G96
         K13V13J KC2013 11 10.32458302 08 11.93 +30 52 28.7          20.1 VuEV075H21
         K13V13J KC2013 11 10.32744102 08 12.11 +30 52 32.3          20.1 VuEV075H21
         K13V13J KC2013 11 10.33003102 08 12.29 +30 52 35.5          20.3 VuEV075H21
         K13V13J  C2013 11 10.33213 02 08 13.74 +30 52 55.5          19.8 VqEV075G96
         K13V13J KC2013 11 10.33270102 08 12.51 +30 52 38.9          20.1 VuEV075H21
         K13V13J KC2013 11 10.33544602 08 12.72 +30 52 42.8          20.0 VuEV075H21
         K13V13J KC2013 11 11.08945002 09 22.99 +31 09 47.8          20.3 VuEV075H21
         K13V13J KC2013 11 11.09372702 09 23.22 +31 09 53.9                uEV075H21
         K13V13J KC2013 11 11.10234002 09 23.73 +31 10 05.7                uEV075H21
         K13V13J KC2013 11 11.10624302 09 23.94 +31 10 10.6          20.5 VuEV075H21
         K13V13J !C2013 11 11.13161 02 09 27.48 +31 10 40.5          18.3 RtEV075673
         K13V13J !C2013 11 11.14363 02 09 28.12 +31 10 57.2          19.0 RtEV075673
         K13V13J KC2013 11 12.11190 02 10 41.60 +31 29 18.3          19.7 RoEV075291
         K13V13J KC2013 11 12.11514 02 10 41.78 +31 29 22.2          19.8 RoEV075291
         K13V13J KC2013 11 12.11839 02 10 41.95 +31 29 25.9          19.8 RoEV075291
         K13V13J  C2013 11 12.13043 02 10 42.18 +31 29 44.5                oEV075711
         K13V13J  C2013 11 12.13960 02 10 43.00 +31 29 50.4          19.9 VqEV075G96
         K13V13J  C2013 11 12.14467 02 10 43.27 +31 29 56.2          20.3 VqEV075G96
         K13V13J  C2013 11 12.14896 02 10 43.07 +31 30 05.5                oEV075711
         K13V13J  C2013 11 12.14973 02 10 43.50 +31 30 02.1          20.2 VqEV075G96
         K13V13J  C2013 11 12.15260 02 10 43.23 +31 30 09.8                oEV075711
         K13V13J  C2013 11 12.15479 02 10 43.75 +31 30 08.0          20.4 VqEV075G96
    
    Observer details:
    291 LPL/Spacewatch II.  Observers T. H. Bressi, R. A. Mastaler.  1.8-m f/2.7
        reflector + CCD.
    673 Table Mountain Observatory, Wrightwood.  Observer J. Pittichova.  0.60-m
        f/16 Ritchey-Chretien + CCD.
    711 McDonald Observatory.  Observer J. G. Ries.  2.1-m reflector + CCD + focal
        reducer.
    926 Tenagra II Observatory.  Observers M. Schwartz, P. R. Holvorcem.  0.81-m
        f/7 Ritchey-Chretien + CCD.
    G96 Mt. Lemmon Survey.  Observers A. Boattini, J. A. Johnson.  Measurers
        A. Boattini, E. J. Christensen, A. R. Gibbs, A. D. Grauer, R. E. Hill,
        J. A. Johnson, R. A. Kowalski, S. M. Larson, F. C. Shelly.  1.5-m
        reflector + CCD.
    H21 Astronomical Research Observatory, Westfield.  Observer R. Holmes.
        Measurers T. Linder, S. Foglia, L. Buzzi, T. Vorobjov.  0.61-m f/4.5
        astrograph + CCD.
    V37 McDonald Observatory-LCOGT ELP.  Observers E. J. Christensen, S. M. Larson,
        T. Lister.  Measurer T. Lister.  1.0-m f/8 Ritchey-Chretien + CCD.
    
    Orbital elements:
    2013 VJ13                                                Earth MOID = 0.0073 AU
    Epoch 2013 Nov. 4.0 TT = JDT 2456600.5                  MPC
    M  19.02851              (2000.0)            P               Q
    n   0.38899161     Peri.  291.87006     +0.85435765     +0.50823988
    a   1.8585570      Node    37.82261     -0.38709514     +0.76162467
    e   0.5806075      Incl.   10.18822     -0.34674249     +0.40202000
    P   2.53           H   23.7           G   0.15           U   7
    Residuals in seconds of arc
    131110 G96  0.0   0.2+    131110 926  0.1+  0.3+    131111 673  1.0+  0.6-
    131110 G96  0.1+  0.0     131110 G96  0.1+  0.1+    131111 673  0.1-  0.7-
    131110 G96  0.1-  0.0     131110 G96  0.1-  0.0     131112 291  0.2-  0.1+
    131110 G96  0.3-  0.1-    131110 H21  0.0   0.2+    131112 291  0.1-  0.1+
    131110 G96  0.1-  0.1+    131110 H21  0.2-  0.0     131112 291  0.2-  0.0
    131110 G96  0.0   0.0     131110 H21  0.2-  0.2-    131112 711  0.1-  0.3+
    131110 G96  0.2-  0.0     131110 G96  0.2-  0.0     131112 G96  0.0   0.1-
    131110 G96  0.1-  0.2+    131110 H21  0.2+  0.3-    131112 G96  0.3+  0.2-
    131110 V37  0.1+  0.1-    131110 H21  0.5+  0.0     131112 711  0.0   0.1+
    131110 V37  0.0   0.1-    131111 H21  0.2+  0.1-    131112 G96  0.0   0.1-
    131110 V37  0.1+  0.0     131111 H21  0.0   0.1+    131112 711  0.1-  0.3+
    131110 926  0.1-  0.2+    131111 H21  0.2+  0.2+    131112 G96  0.1+  0.0
    131110 926  0.0   0.2+    131111 H21  0.1+  0.2-
    
    Ephemeris:
    2013 VJ13                a,e,i = 1.86, 0.58, 10                  q = 0.7795
    Date    TT    R. A. (2000) Decl.     Delta      r     Elong.  Phase     V
    2013 10 13    14 33 48.1 -38 33 07   0.1609  0.8726    35.9   137.9    26.0
    ...
    2013 10 28    17 06 46.4 -59 44 41   0.02052 0.9826    57.0   122.0    20.2
    ...
    2013 11 05    01 55 09.5 +26 38 36   0.05990 1.0495   164.7    14.4    18.5
    ...
    2013 11 11    02 09 12.9 +31 08 10   0.1171  1.1017   161.4    16.7    20.1
    2013 11 12    02 10 29.8 +31 27 33   0.1269  1.1105   160.9    16.9    20.3
    2013 11 13    02 11 38.8 +31 43 38   0.1367  1.1194   160.5    17.2    20.5
    ...
    2013 11 19    02 16 58.7 +32 37 39   0.1969  1.1729   157.7    18.6    21.5
    ...
    2013 11 27    02 22 42.1 +32 55 43   0.2817  1.2448   153.2    20.9    22.5
    ...
    2013 12 12    02 34 51.1 +32 40 47   0.4575  1.3788   143.3    25.3    23.9
    
    A. U. Tomatic                (C) Copyright 2013 MPC           M.P.E.C. 2013-V75
    

    Read MPEC 2013-V74 Read MPEC 2013-V76


    MPEC number:

    Enter an MPEC number in one of the following forms:

    • 1997-B01 (the full form)
    • J97B01 (the packed version of the full form)
    • B01 (the abbreviated form)